This demonstration page uses our WeatherBlox Daily Observations layout. Learn more.

36.17497, -115.13722

Hourly Observations for March 29, 2018

Temp ( °F °C ) Dew Point ( °F °C ) Humidity (%) Winds ( mph kmh ) Pressure ( in mb ) Visibility ( mi km ) Precip ( " mm )
12:53 am 00:53 Clear 63 17.2 23 -5 22 22 N 6 9 30.02 1017 10 16.0934 0 0
1:53 am 01:53 Clear 65 18.3 23 -5 20 20 NNE 8 13 30.03 1017 10 16.0934 0 0
2:53 am 02:53 Clear 64 17.8 24 -4.4 22 22 N 8 13 30.02 1017 10 16.0934 0 0
3:53 am 03:53 Clear 63 17.2 23 -5 22 22 N 10 17 30.02 1017 10 16.0934 0 0
4:53 am 04:53 Clear 62 16.7 23 -5 22 22 N 10 17 30.03 1017 10 16.0934 0 0
5:53 am 05:53 Clear 61 16.1 23 -5 23 23 NNW 14 22 30.04 1017 10 16.0934 0 0
6:53 am 06:53 Sunny 62 16.7 23 -5 22 22 N 13 20 30.08 1019 10 16.0934 0 0
7:53 am 07:53 Sunny 63 17.2 24 -4.4 23 23 NNE 10 17 30.1 1019 10 16.0934 0 0
8:53 am 08:53 Sunny 68 20 24 -4.4 19 19 N 15 24 30.11 1020 10 16.0934 0 0
9:53 am 09:53 Sunny 71 21.7 22 -5.6 16 16 NNE 10 17 30.12 1020 10 16.0934 0 0
10:53 am 10:53 Sunny 74 23.3 21 -6.1 14 14 NNW 12 19 30.11 1020 10 16.0934 0 0
11:53 am 11:53 Sunny 76 24.4 21 -6.1 13 13 ESE 5 7 30.09 1019 10 16.0934 0 0
12:53 pm 12:53 Sunny 75 23.9 19 -7.2 12 12 VRB 5 7 30.08 1019 10 16.0934 0 0
1:53 pm 13:53 Sunny 79 26.1 15 -9.4 9 9 N 13 20 30.05 1018 10 16.0934 0 0
2:53 pm 14:53 undefined 78 25.6 16 -8.9 9 9 VRB 7 11 30.02 1017 N/A 0 0
3:53 pm 15:53 Sunny 78 25.6 16 -8.9 9 9 NNE 13 20 30 1016 10 16.0934 0 0
4:53 pm 16:53 Sunny 78 25.6 17 -8.3 10 10 ESE 10 17 29.99 1016 10 16.0934 0 0
5:53 pm 17:53 Sunny 76 24.4 17 -8.3 11 11 ESE 6 9 29.99 1016 10 16.0934 0 0
6:53 pm 18:53 Sunny 74 23.3 18 -7.8 12 12 ESE 5 7 30 1016 10 16.0934 0 0
7:53 pm 19:53 Clear 72 22.2 19 -7.2 13 13 SSE 3 6 30.01 1016 10 16.0934 0 0
8:53 pm 20:53 Clear 68 20 21 -6.1 17 17 NW 3 6 30.03 1017 10 16.0934 0 0
9:53 pm 21:53 Clear 66 18.9 23 -5 19 19 NW 5 7 30.05 1018 10 16.0934 0 0
10:53 pm 22:53 Clear 63 17.2 26 -3.3 25 25 NW 7 11 30.05 1018 10 16.0934 0 0
11:53 pm 23:53 Clear 61 16.1 26 -3.3 26 26 NW 5 7 30.06 1018 10 16.0934 0 0

Powered by AerisWeather